Location: Lido
(41.7329°N, 12.2875°E)
Time: 09:16:23
(UTC+01:00)

ISS - Visible Passes

Search period start: 18 November 2019 00:00
Search period end: 28 November 2019 00:00
Orbit: 412 x 421 km, 51.6° (Epoch: 18 November)

Date Brightness Start Highest point End Pass type
(mag) Time Alt. Az. Time Alt. Az. Time Alt. Az.
20 Nov -1.9 18:27:24 10° S 18:29:10 20° SSE 18:29:10 20° SSE visible
21 Nov -1.6 17:40:09 10° SSE 17:41:54 14° SE 17:43:06 12° ESE visible
21 Nov -1.1 19:14:54 10° WSW 19:16:02 20° WSW 19:16:02 20° WSW visible
22 Nov -3.8 18:26:30 10° SW 18:29:50 66° SE 18:29:52 66° SE visible
23 Nov -2.9 17:38:21 10° SSW 17:41:28 37° SE 17:43:36 17° ENE visible
23 Nov -1.1 19:15:10 10° W 19:16:31 20° WNW 19:16:31 20° WNW visible
24 Nov -3.2 18:26:26 10° WSW 18:29:42 48° NNW 18:30:10 44° N visible
25 Nov -3.7 17:37:52 10° WSW 17:41:12 78° NNW 17:43:46 16° NE visible
25 Nov -0.8 19:15:47 10° WNW 19:16:40 14° NW 19:16:40 14° NW visible
26 Nov -2.1 18:26:51 10° W 18:29:43 25° NNW 18:30:11 24° N visible
27 Nov -2.5 17:38:00 10° W 17:41:06 34° NNW 17:43:40 13° NE visible
27 Nov -0.6 19:16:26 10° NW 19:16:34 11° NW 19:16:34 11° NW visible
